Lexington Weather

Lexington, Massachusetts, USA

78°F
7/25/2024 12:49pm 
  • Lexington Conditions: Mostly cloudy
  • Temperature: 77.7°F / 25.4°CWarmer 0.5°F than last hour.
  • Dew Point: 72.1°FDecreased 0.6°Fsince last hour.
  • Relative Humidity: 83%Decreased 3.0% since last hour.
  • Wind: Wind from SSW SSW Calm, 10-min avg: 1 mph, gust: 7 mph
  • Barometer: 29.93 in Steady
  • Visibility: 10 miles
  • Rain Today: 0.00 in
  •   

Regional Weather Roundup
for Boston, MA

        
000
ASUS41 KBOX 182210
RWRBOX

REGIONAL WEATHER ROUNDUP
NATIONAL WEATHER SERVICE BOSTON/NORTON MA
600 PM EDT THU JUL 18 2024

NOTE:  "FAIR" INDICATES FEW OR NO CLOUDS BELOW 12,000 FEET WITH NO 
SIGNIFICANT WEATHER AND/OR OBSTRUCTIONS TO VISIBILITY.

MAZALL-182300-
EASTERN MASSACHUSETTS
  
CITY           SKY/WX    TMP DP  RH WIND       PRES   REMARKS
BOSTON         PTSUNNY   86  57  37 W15G22    29.84R                  
BEVERLY        MOSUNNY   84  57  39 W10       29.83R                  
LAWRENCE       MOSUNNY   83  57  41 W13       29.86R                  
BEDFORD        MOSUNNY   82  60  47 W8        29.84R                  
NORWOOD        MOSUNNY   86  64  47 W14G20    29.85S                  
MARSHFIELD     MOSUNNY   86  63  45 W8        29.83S                  
PLYMOUTH       SUNNY     85  63  47 NW8       29.84S                  
TAUNTON        SUNNY     88  64  44 W7        29.84S                  
NEW BEDFORD    SUNNY     86  66  51 W9        29.85R                  
$$

MAZALL-182300-
CAPE COD AND THE ISLANDS
  
CITY           SKY/WX    TMP DP  RH WIND       PRES   REMARKS
FALMOUTH       SUNNY     82  66  57 W9        29.87S                  
HYANNIS        MOSUNNY   82  70  66 CALM      29.84R                  
CHATHAM        MOSUNNY   83  68  60 VRB5      29.86R                  
PROVINCETOWN   SUNNY     83  70  64 SW6       29.85S                  
NANTUCKET      MOSUNNY   78  73  84 SW9       29.86R                  
MARTHAS VNYRD  MOSUNNY   82  68  62 W7        29.85S                  
$$
 
MAZALL-182300-
CENTRAL AND WESTERN MASSACHUSETTS
  
CITY           SKY/WX    TMP DP  RH WIND       PRES   REMARKS
WORCESTER      MOSUNNY   79  57  46 W10       29.92S                  
FITCHBURG      PTSUNNY   81  61  50 W8        29.88R                  
ORANGE           N/A     81  58  45 W10G18    29.91S                  
SPRINGFIELD    MOSUNNY   81  54  38 NW14      29.87R                  
WESTFIELD      PTSUNNY   81  56  42 NW14      29.90S                  
NORTH ADAMS    SUNNY     76  56  49 W10G23    29.93R                  
PITTSFIELD     MOSUNNY   76  54  46 NW9       29.95S                  
$$
 
RIZALL-182300-
RHODE ISLAND
  
CITY           SKY/WX    TMP DP  RH WIND       PRES   REMARKS
PROVIDENCE     PTSUNNY   84  63  49 W12       29.86S                  
NEWPORT        SUNNY     83  63  50 W5        29.86S                  
BLOCK ISLAND   SUNNY     79  65  62 W9          N/A                   
SMITHFIELD     MOSUNNY   81  64  56 W7        29.89R                  
WESTERLY       MOSUNNY   81  65  58 W8        29.87S                  
$$
 
CTZALL-182300-
CONNECTICUT
  
CITY           SKY/WX    TMP DP  RH WIND       PRES   REMARKS
BRADLEY INTL   PTSUNNY   82  59  45 NW10      29.91R                  
HARTFORD       PTSUNNY   82  60  47 NW10      29.89R                  
PLAINVILLE     MOCLDY    81  64  56 NW5       29.90S                  
BRIDGEPORT     PTSUNNY   84  65  52 SW9       29.89S                  
DANBURY        PTSUNNY   81  65  58 SW6       29.92S                  
GROTON         MOSUNNY   81  66  60 W12       29.87R                  
NEW HAVEN      PTSUNNY   83  68  60 NW7       29.89S                  
CHESTER        PTSUNNY   81  66  61 CALM      29.91R                  
MERIDEN        PTSUNNY   83  59  44 NW8       29.89S                  
WILLIMANTIC    MOSUNNY   82  58  43 NW9G22    29.90R                  
OXFORD         PTSUNNY   79  64  60 W5        29.94S                  
$$

MEZ002-015-021-024-NHZ003-005-008-011-012-014-VTZ005-008-182300-
NORTHERN NEW ENGLAND
  
CITY           SKY/WX    TMP DP  RH WIND       PRES   REMARKS
PORTLAND ME    MOSUNNY   82  56  40 W10       29.82R                  
BANGOR ME      MOSUNNY   82  58  43 W9G17     29.78R                  
CONCORD NH     MOSUNNY   82  56  40 W8        29.86R                  
MANCHESTER NH  PTSUNNY   85  56  37 W9        29.84S                  
NASHUA NH      PTSUNNY   82  62  50 W5        29.86R                  
PORTSMOUTH NH  PTSUNNY   84  57  39 NW12      29.82R                  
JAFFREY NH     PTSUNNY   81  57  43 W9        29.92R                  
KEENE NH       MOSUNNY   80  58  46 W7        29.89R                  
BURLINGTON VT  MOSUNNY   77  53  43 N15       29.93R                  
MT. WASHINGTON PTSUNNY   48  43  81 NW44G54     N/A                   
$$

NYZ052-076-182300-
EASTERN NEW YORK
  
CITY           SKY/WX    TMP DP  RH WIND       PRES   REMARKS
ALBANY         MOSUNNY   80  55  42 W14       29.94S                  
NEW YORK CITY  PTSUNNY   83  58  42 NW13G20   29.89S                  
$$
 
ANZALL-182300-
MARINE OBSERVATIONS
  
STATION/POSITION TIME  TEMP    WIND        PRES    VSBY  WAVE
                       AIR SEA DIR/SP/G                  HT/PER
                 (UTC) (F)     (DEG/KT/KT) (MB)    (MI)  (FT/S)
BOSTON BUOY      2150   71 67  180/  6/  6 1010.6R         1/ 9
BUZZARDS BAY     2100   76     250/ 14/ 15 1011.1F
NANTUCKET SOUND  2150   81 77  140/  2/  2 1010.5R         1/ 4
MASS BAY-STELLWA 2004   67 63  160/  6/  6 1010.4F  1 7/8  2/ 8
ISLE OF SHOALS   2100   77     180/ 15/ 15 1009.1F
S OF BLOCK IS    2156      75                N/A           6/ 8
$$

......................KEY.........................
  SKY/WX - SKY CONDITION/PRESENT WEATHER
  TMP    - TEMPERATURE IN FAHRENHEIT
  DWPT   - DEWPOINT IN FAHRENHEIT
  RH     - RELATIVE HUMIDITY IN PERCENT
  WIND   - DIRECTION AND SPEED IN MPH
  PRES   - MEAN SEA LEVEL PRESSURE IN INCHES OF HG
  WCI    - WIND CHILL INDEX
  VSB    - VISIBILITY IN MILES
  HX     - HEAT INDEX
  TC     - TEMPERATURE IN CELSIUS
  VRB    - VARIABLE WIND DIRECTION
  N/A    - NOT AVAILABLE
  
      

Other recent Regional Weather Roundups

Thu Jul 25, 12:10pm EDT

Thu Jul 25, 11:10am EDT

Thu Jul 25, 10:10am EDT

Thu Jul 25, 9:10am EDT

Thu Jul 25, 8:10am EDT

Thu Jul 25, 7:10am EDT

Thu Jul 25, 6:10am EDT

Thu Jul 25, 5:10am EDT

Thu Jul 25, 4:10am EDT

Thu Jul 25, 3:10am EDT

Thu Jul 25, 2:10am EDT

Thu Jul 25, 1:10am EDT

Thu Jul 25, 12:10am EDT

Wed Jul 24, 11:10pm EDT

Wed Jul 24, 10:10pm EDT

Wed Jul 24, 9:10pm EDT

Wed Jul 24, 8:10pm EDT

Wed Jul 24, 7:10pm EDT

Wed Jul 24, 6:10pm EDT

Wed Jul 24, 5:10pm EDT

Wed Jul 24, 4:10pm EDT

Wed Jul 24, 3:10pm EDT

Wed Jul 24, 2:10pm EDT

Wed Jul 24, 1:10pm EDT

Wed Jul 24, 12:10pm EDT

Wed Jul 24, 11:10am EDT

Wed Jul 24, 10:10am EDT

Wed Jul 24, 9:10am EDT

Wed Jul 24, 8:10am EDT

Wed Jul 24, 7:10am EDT

Wed Jul 24, 6:10am EDT

Wed Jul 24, 5:10am EDT

Wed Jul 24, 4:10am EDT

Wed Jul 24, 3:10am EDT

Wed Jul 24, 2:10am EDT

Wed Jul 24, 1:10am EDT

Wed Jul 24, 12:10am EDT

Tue Jul 23, 11:10pm EDT

Tue Jul 23, 10:10pm EDT

Tue Jul 23, 9:10pm EDT

Tue Jul 23, 8:10pm EDT

Tue Jul 23, 7:10pm EDT

Tue Jul 23, 6:10pm EDT

Tue Jul 23, 5:10pm EDT

Tue Jul 23, 4:10pm EDT

Tue Jul 23, 3:10pm EDT

Tue Jul 23, 2:10pm EDT

Tue Jul 23, 1:10pm EDT

Tue Jul 23, 12:10pm EDT

Tue Jul 23, 11:10am EDT

Tue Jul 23, 10:10am EDT

Tue Jul 23, 10:10am EDT

Tue Jul 23, 9:10am EDT

Tue Jul 23, 8:10am EDT

Tue Jul 23, 7:10am EDT

Tue Jul 23, 6:10am EDT

Tue Jul 23, 5:10am EDT

Tue Jul 23, 4:10am EDT

Tue Jul 23, 3:10am EDT

Tue Jul 23, 2:10am EDT

Tue Jul 23, 1:10am EDT

Tue Jul 23, 12:10am EDT

Mon Jul 22, 11:10pm EDT

Mon Jul 22, 10:10pm EDT

Mon Jul 22, 9:10pm EDT

Mon Jul 22, 8:10pm EDT

Mon Jul 22, 7:10pm EDT

Mon Jul 22, 6:10pm EDT

Mon Jul 22, 5:10pm EDT

Mon Jul 22, 4:10pm EDT

Mon Jul 22, 3:10pm EDT

Mon Jul 22, 2:10pm EDT

Mon Jul 22, 1:10pm EDT

Mon Jul 22, 12:10pm EDT

Mon Jul 22, 11:10am EDT

Mon Jul 22, 10:10am EDT

Mon Jul 22, 9:10am EDT

Mon Jul 22, 8:10am EDT

Mon Jul 22, 7:10am EDT

Mon Jul 22, 6:10am EDT

Mon Jul 22, 5:10am EDT

Mon Jul 22, 4:10am EDT

Mon Jul 22, 3:10am EDT

Mon Jul 22, 2:10am EDT

Mon Jul 22, 1:10am EDT

Mon Jul 22, 12:10am EDT

Sun Jul 21, 11:10pm EDT

Sun Jul 21, 10:10pm EDT

Sun Jul 21, 9:10pm EDT

Sun Jul 21, 8:10pm EDT

Sun Jul 21, 7:10pm EDT

Sun Jul 21, 6:10pm EDT

Sun Jul 21, 5:10pm EDT

Sun Jul 21, 4:10pm EDT

Sun Jul 21, 3:10pm EDT

Sun Jul 21, 2:10pm EDT

Sun Jul 21, 1:10pm EDT

Sun Jul 21, 12:10pm EDT

Sun Jul 21, 11:10am EDT

Sun Jul 21, 10:10am EDT

Sun Jul 21, 9:10am EDT

Sun Jul 21, 8:10am EDT

Sun Jul 21, 7:10am EDT

Sun Jul 21, 6:10am EDT

Sun Jul 21, 5:10am EDT

Sun Jul 21, 4:10am EDT

Sun Jul 21, 3:10am EDT

Sun Jul 21, 2:10am EDT

Sun Jul 21, 1:10am EDT

Sun Jul 21, 12:10am EDT

Sat Jul 20, 11:10pm EDT

Sat Jul 20, 10:10pm EDT

Sat Jul 20, 9:10pm EDT

Sat Jul 20, 8:10pm EDT

Sat Jul 20, 7:10pm EDT

Sat Jul 20, 6:10pm EDT

Sat Jul 20, 5:10pm EDT

Sat Jul 20, 4:10pm EDT

Sat Jul 20, 3:10pm EDT

Sat Jul 20, 2:10pm EDT

Sat Jul 20, 1:10pm EDT

Sat Jul 20, 12:10pm EDT

Sat Jul 20, 11:10am EDT

Sat Jul 20, 10:10am EDT

Sat Jul 20, 9:10am EDT

Sat Jul 20, 8:10am EDT

Sat Jul 20, 7:10am EDT

Sat Jul 20, 6:10am EDT

Sat Jul 20, 5:10am EDT

Sat Jul 20, 4:10am EDT

Sat Jul 20, 3:10am EDT

Sat Jul 20, 2:10am EDT

Sat Jul 20, 1:10am EDT

Sat Jul 20, 12:10am EDT

Fri Jul 19, 11:10pm EDT

Fri Jul 19, 10:10pm EDT

Fri Jul 19, 9:10pm EDT

Fri Jul 19, 8:10pm EDT

Fri Jul 19, 7:10pm EDT

Fri Jul 19, 6:10pm EDT

Fri Jul 19, 5:10pm EDT

Fri Jul 19, 4:10pm EDT

Fri Jul 19, 3:10pm EDT

Fri Jul 19, 2:10pm EDT

Fri Jul 19, 1:10pm EDT

Fri Jul 19, 12:10pm EDT

Fri Jul 19, 11:10am EDT

Fri Jul 19, 10:10am EDT

Fri Jul 19, 9:10am EDT

Fri Jul 19, 8:10am EDT

Fri Jul 19, 7:10am EDT

Fri Jul 19, 6:10am EDT

Fri Jul 19, 5:10am EDT

Fri Jul 19, 4:10am EDT

Fri Jul 19, 3:10am EDT

Fri Jul 19, 2:10am EDT

Fri Jul 19, 1:10am EDT

Fri Jul 19, 12:10am EDT

Thu Jul 18, 11:10pm EDT

Thu Jul 18, 10:10pm EDT

Thu Jul 18, 9:10pm EDT

Thu Jul 18, 8:10pm EDT

Thu Jul 18, 7:10pm EDT

Thu Jul 18, 5:10pm EDT

Thu Jul 18, 4:10pm EDT

Thu Jul 18, 3:10pm EDT

Thu Jul 18, 2:10pm EDT

Thu Jul 18, 1:10pm EDT